Starlink 6321

operational
NORAD ID: 57340 Int'l Des: 2023-099 Owner: SPXS Country: US Constellation: starlink
LEOCIRCULAR

About Starlink 6321

Description loading...

Live Position

Loading 3D Globe...

Upcoming Passes

Altitude History

Altitude vs Time

uPlot chart will show altitude changes over time

Two-Line Element Set

1 57340U 23099N 25258.02823729 -.00000270 00000-0 -49250-5 0 9993
2 57340 43.0033 123.3724 0001001 268.6345 91.4383 15.02533478119694
Epoch: Sep 15, 2025 • Age: 22 hours

Current Status

Altitude 558.3 km
Velocity 7.58 km/s
Sub-Earth Point 8.19°N, 145.96°E
Launch Date Jul 16, 2023
Age 2.1 years
Type internet

Technical Details

Classification Payload
Mass 305.00 kg
Dry Mass 290.00 kg
Total Mass 305.00 kg
Length 0.20 m
Diameter 2.80 m
Span 9.00 m
Shape Box + pan
Manufacturer SPXS
Bus Type Starlink
Phase Status In Orbit
Owner/State SPXS/US

Large Constellations

Loading constellations...